Location: Knowlton
(51.2333°N, 1.2667°E)
Time: 08:46:49
(UTC+00:00)

SeaSat 1 - Pass Details

Date: 18 April 2021
Orbit: 744 x 747 km, 108.0° (Epoch: 05 May)

Event Time Altitude Azimuth Distance (km) Brightness Sun altitude
Rises 21:19:53 0° 42° (NE) 3,204 5.8 -19.2°
Reaches altitude 10° 21:22:50 10° 60° (ENE) 2,274 4.8 -19.5°
Enters shadow 21:24:38 16° 80° (E) 1,882 4.2 -19.7°
